Weather reports worldwide

Advertisment
Foggia Amendola, Italy (16261): temperature & dewpoint: 16.02.2019 22:00:00 - 22.02.2019 22:00:00 (CET)Foggia Amendola, Italy (16261): wind speed: 16.02.2019 22:00:00 - 22.02.2019 22:00:00 (CET)Foggia Amendola, Italy (16261): wind direction: 16.02.2019 22:00:00 - 22.02.2019 22:00:00 (CET)Foggia Amendola, Italy (16261): reduced air pressure: 16.02.2019 22:00:00 - 22.02.2019 22:00:00 (CET)Foggia Amendola, Italy (16261): visibility: 16.02.2019 22:00:00 - 22.02.2019 22:00:00 (CET)Foggia Amendola, Italy (16261): sunshine duration: 16.02.2019 22:00:00 - 22.02.2019 22:00:00 (CET)
Date & Time tt [°C] td [°C] ff [km/h] ff [kn] dd ppp [hPa] vv [km] sd [min]
22.02.2019 22:00:00 - - - - - - - -
22.02.2019 21:00:00 - - - - - - - -
22.02.2019 20:00:00 - - - - - - - -
22.02.2019 19:00:00 9,4 8,3 24 13 WNW 1020,8 1,5 -
22.02.2019 18:00:00 10,0 9,0 24 13 WNW - 1,5 -
22.02.2019 17:00:00 11,0 9,0 21 11 WNW - 2,5 -
22.02.2019 16:00:00 12,0 6,7 28 15 NNW 1019,6 5 24
22.02.2019 15:00:00 13,0 5,0 24 13 NNW - 6 -
22.02.2019 14:00:00 14,0 1,0 28 15 NW - 6 -
22.02.2019 13:00:00 12,4 4,9 35 19 NW 1020,2 6 24
22.02.2019 12:00:00 13,0 4,0 26 14 WNW - 5 -
22.02.2019 11:00:00 10,0 5,0 24 13 W - 4,5 -
22.02.2019 10:00:00 10,2 6,5 24 13 WNW 1021,7 4,5 0
22.02.2019 09:00:00 8,0 6,0 15 8 W - 3,0 -
22.02.2019 08:00:00 6,0 4,0 15 8 WNW - 3,0 -
22.02.2019 07:00:00 4,4 2,1 13 7 W 1022,9 3,0 0
22.02.2019 06:00:00 4,0 2,0 16 9 W - 3,0 -
22.02.2019 05:00:00 5,0 2,0 11 6 W - 2,5 -
22.02.2019 04:00:00 - - - - - - - -
22.02.2019 03:00:00 - - - - - - - -
22.02.2019 02:00:00 - - - - - - - -
22.02.2019 01:00:00 - - - - - - - -
22.02.2019 00:00:00 - - - - - - - -
21.02.2019 23:00:00 - - - - - - - -
21.02.2019 22:00:00 - - - - - - - -
21.02.2019 21:00:00 7,0 6,0 13 7 W - 1,5 -
21.02.2019 20:00:00 7,0 6,0 15 8 W - 2,0 -
21.02.2019 19:00:00 7,6 7,0 18 10 WNW 1025,9 2,0 -
21.02.2019 18:00:00 9,0 8,0 16 9 W - 3,0 -
21.02.2019 17:00:00 11,0 8,0 18 10 WNW - 4,5 -
21.02.2019 16:00:00 13,2 8,1 18 10 WNW 1025,4 6 60
21.02.2019 15:00:00 14,0 8,0 18 10 WNW - 7 -
21.02.2019 14:00:00 14,0 7,0 9 5 W - 7 -
21.02.2019 13:00:00 13,4 6,7 16 9 W 1026,3 7 60
21.02.2019 12:00:00 13,0 7,0 18 10 W - 6 -
21.02.2019 11:00:00 12,0 9,0 18 10 WNW - 4,5 -
21.02.2019 10:00:00 8,8 6,6 18 10 WNW 1026,9 3,5 60
21.02.2019 09:00:00 6,0 4,0 16 9 W - 1,5 -
21.02.2019 08:00:00 3,0 1,0 15 8 W - 1,2 -
21.02.2019 07:00:00 2,4 0,6 13 7 W 1025,6 0,6 0
21.02.2019 06:00:00 2,0 1,0 15 8 W - 0,8 -
21.02.2019 05:00:00 3,0 2,0 15 8 W - 0,8 -
21.02.2019 04:00:00 - - - - - - - -
21.02.2019 03:00:00 - - - - - - - -
21.02.2019 02:00:00 - - - - - - - -
21.02.2019 01:00:00 - - - - - - - -
21.02.2019 00:00:00 - - - - - - - -
20.02.2019 23:00:00 - - - - - - - -
20.02.2019 22:00:00 - - - - - - - -
20.02.2019 21:00:00 - - - - - - - -
20.02.2019 20:00:00 - - - - - - - -
20.02.2019 19:00:00 7,4 7,1 9 5 SW 1024,3 5 -
20.02.2019 18:00:00 9,0 8,0 9 5 W - 6 -
20.02.2019 17:00:00 11,0 9,0 13 7 WNW - 7 -
20.02.2019 16:00:00 12,8 8,7 13 7 W 1023,4 7 60
20.02.2019 15:00:00 13,0 8,0 13 7 WNW - 6 -
20.02.2019 14:00:00 13,0 8,0 4 2 SSW - 6 -
20.02.2019 13:00:00 12,0 7,0 8 4 W 1024,0 6 36
20.02.2019 12:00:00 12,0 8,0 4 2 - - 7 -
20.02.2019 11:00:00 11,0 7,0 4 2 NNW - 6 -
20.02.2019 10:00:00 8,2 6,2 11 6 WNW 1024,2 4,0 60
20.02.2019 09:00:00 5,0 3,0 9 5 WNW - 3,0 -
20.02.2019 08:00:00 1,0 0,0 11 6 W - 4,0 -
20.02.2019 07:00:00 0,2 -1,4 9 5 WSW 1022,9 3,0 0
20.02.2019 06:00:00 1,0 -1,0 9 5 W - 4,0 -
20.02.2019 05:00:00 2,0 1,0 11 6 W - 6 -
20.02.2019 04:00:00 - - - - - - - -
20.02.2019 03:00:00 - - - - - - - -
20.02.2019 02:00:00 - - - - - - - -
20.02.2019 01:00:00 - - - - - - - -
20.02.2019 00:00:00 - - - - - - - -
19.02.2019 23:00:00 - - - - - - - -
19.02.2019 22:00:00 - - - - - - - -
19.02.2019 21:00:00 - - - - - - - -
19.02.2019 20:00:00 7,0 6,0 11 6 ENE - 6 -
19.02.2019 19:00:00 7,4 6,7 8 4 E 1021,5 6 -
19.02.2019 18:00:00 8,0 8,0 9 5 E - 6 -
19.02.2019 17:00:00 11,0 9,0 16 9 E - 6 -
19.02.2019 16:00:00 14,4 8,1 8 4 E 1020,8 6 60
19.02.2019 15:00:00 16,0 2,0 4 2 W - 8 -
19.02.2019 14:00:00 15,0 3,0 4 2 NNW - 8 -
19.02.2019 13:00:00 14,4 4,1 5 3 WSW 1021,5 6 60
19.02.2019 12:00:00 13,0 7,0 8 4 WSW - 6 -
19.02.2019 11:00:00 11,0 6,0 5 3 WSW - 5 -
19.02.2019 10:00:00 8,0 5,1 5 3 WNW 1022,5 4,5 60
19.02.2019 09:00:00 5,0 4,0 4 2 W - 3,0 -
19.02.2019 08:00:00 4,0 2,0 4 2 N - 2,5 -
19.02.2019 07:00:00 3,2 1,4 4 2 NNE 1022,1 1,5 0
19.02.2019 06:00:00 6,0 5,0 2 1 NNW - 3,0 -
19.02.2019 05:00:00 6,0 5,0 5 3 WNW - 3,0 -
19.02.2019 04:00:00 - - - - - - - -
19.02.2019 03:00:00 - - - - - - - -
19.02.2019 02:00:00 7,0 5,0 0 0 N - 1,5 -
19.02.2019 01:00:00 6,6 6,6 5 3 SSW 1023,5 0,8 -
19.02.2019 00:00:00 7,0 6,0 8 4 S - 3,0 -
18.02.2019 23:00:00 7,0 5,0 5 3 ESE - 5 -
18.02.2019 22:00:00 7,0 5,5 8 4 NNE 1023,5 6 -
18.02.2019 21:00:00 7,0 6,0 9 5 ENE - 8 -
18.02.2019 20:00:00 7,0 7,0 9 5 E - 8 -
18.02.2019 19:00:00 7,0 7,0 9 5 E 1023,1 8 -
18.02.2019 18:00:00 9,0 7,0 11 6 E - 8 -
18.02.2019 17:00:00 8,0 0,0 11 6 E - 10 -
18.02.2019 16:00:00 13,4 3,5 11 6 E 1022,7 15 60
18.02.2019 15:00:00 17,0 3,0 13 7 E - 10 -
18.02.2019 14:00:00 16,0 0,0 5 3 NNW - 10 -
18.02.2019 13:00:00 15,0 0,8 5 3 N 1024,2 15 60
18.02.2019 12:00:00 14,0 3,0 5 3 W - 10 -
18.02.2019 11:00:00 11,0 3,0 5 3 NW - 10 -
18.02.2019 10:00:00 9,2 4,8 8 4 NW 1025,3 12 60
18.02.2019 09:00:00 4,0 3,0 9 5 WNW - 10 -
18.02.2019 08:00:00 1,0 1,0 8 4 W - 10 -
18.02.2019 07:00:00 0,0 0,0 11 6 WSW 1025,3 10 0
18.02.2019 06:00:00 1,0 1,0 11 6 WSW - 10 -
18.02.2019 05:00:00 1,0 1,0 9 5 WSW - 10 -
18.02.2019 04:00:00 - - - - - - - -
18.02.2019 03:00:00 - - - - - - - -
18.02.2019 02:00:00 - - - - - - - -
18.02.2019 01:00:00 - - - - - - - -
18.02.2019 00:00:00 - - - - - - - -
17.02.2019 23:00:00 - - - - - - - -
17.02.2019 22:00:00 - - - - - - - -
17.02.2019 21:00:00 - - - - - - - -
17.02.2019 20:00:00 - - - - - - - -
17.02.2019 19:00:00 - - - - - - - -
17.02.2019 18:00:00 - - - - - - - -
17.02.2019 17:00:00 - - - - - - - -
17.02.2019 16:00:00 - - - - - - - -
17.02.2019 15:00:00 - - - - - - - -
17.02.2019 14:00:00 - - - - - - - -
17.02.2019 13:00:00 - - - - - - - -
17.02.2019 12:00:00 - - - - - - - -
17.02.2019 11:00:00 - - - - - - - -
17.02.2019 10:00:00 - - - - - - - -
17.02.2019 09:00:00 - - - - - - - -
17.02.2019 08:00:00 - - - - - - - -
17.02.2019 07:00:00 - - - - - - - -
17.02.2019 06:00:00 - - - - - - - -
17.02.2019 05:00:00 - - - - - - - -
17.02.2019 04:00:00 - - - - - - - -
17.02.2019 03:00:00 - - - - - - - -
17.02.2019 02:00:00 - - - - - - - -
17.02.2019 01:00:00 - - - - - - - -
17.02.2019 00:00:00 - - - - - - - -
16.02.2019 23:00:00 - - - - - - - -
16.02.2019 22:00:00 - - - - - - - -

tt = temperature
td = dewpoint
ff = wind speed
dd = wind direction
ppp = reduced air pressure
vv = visibility
sd = sunshine duration

Next stations